STARLINK-31992, 60023

Orbit data source: Space-Track

STARLINK-31992, 60023 is a payload satellite owned by SpaceX/Seattle (US) in LEO that was launched on Sat, 08 Jun 2024 UTC via an FALCON 9 launch vehicle from the Air Force Eastern Test Range (AFETR). Payload-class satellites include a variety of spacecraft equipped with specific instruments for various scientific and technological missions. These include communications satellites like Starlink; space stations such as the ISS; scientific satellites like the Hubble; Earth observation satellites from companies like Planet Labs, Umbra, and HawkEye 360; GPS; miniature CubeSats for education and research; and military/defense satellites.

Loading next visibility...
Identifier
60023, 2024-111H
Orbit
LEO
Country
Flag of USUS
Related business
Manufacturer
SpaceX/Seattle
Mission
Operational Commercial Communications
Bus & Motor
STARLINK V2M, Unknown motor
Mass
730 kg wet, ~700 kg dry
Launch date (UTC)
2024-06-08 (2 years ago)
Launch vehicle
FALCON 9
Launch site
Air Force Eastern Test Range (AFETR)
Object type
Payload
Rocket body
Debris
Shape & HBR
Box + 2 Pan, 17.7 m
Radar Cross Section
33.884 m², Large (>1 m²)

Expand to show TLE details & history
Last TLE update: 3 days ago

TLE from 3 days ago
0 STARLINK-31992
1 60023U 24111H   26170.71344595 -.00000535  00000-0 -59341-5 0  9996
2 60023  53.1605 321.7502 0001022  92.0814 268.0304 15.30203744114662
Epoch: 2026-06-19T17:07Z
TLE epoch observation values (Epoch: 2026-06-19T17:07:21.730Z)
Latitude
0.00001°
Longitude
156.9712°
Altitude
476.128 km
Speed
7.629 km/s
True Right ascension
21h 27m 00s
True Declination
0° 00' 00"
Sunlit
Object was in full shadow at epoch
Visualization orbit readout
Latitude
Unknown
Longitude
Unknown
Altitude
Unknown
Speed
Unknown
Apparent Right ascension
Unknown
Apparent Declination
Unknown
Sunlit
N/A
Visualization observer readout
Local Sidereal Time
21:28:40
Azimuth
Unknown
Elevation
Unknown
Doppler factor
Unknown
Orbital elements
Apogee altitude
476.161 km
Perigee altitude
474.76 km
Semi-major axis
6,853.597 km
Eccentricity
0.0001
Inclination
53.1605°
RAAN
321.7502°
Arg. of periapsis
92.0814°
True anomaly
268.0187°
Mean anomaly
268.0304°
Eccentric anomaly
268.02455°
Mean motion
3.8253 °/min
Orbital period
94.11 mins
BSTAR
-0.0000059341
Loading maneuver chart data...
Computing Atmospheric mass density...
Loading historical data...
Loading historical data...
Loading historical data...
Loading historical data...
Loading historical data...
Loading historical data...
Loading historical data...

Documentation

Showing up to 5 results
|